Location: Bonaustraße
(48.4603°N, 11.9280°E)
Time: 06:59:50
(UTC+01:00)

X-37B - Pass Details

Date: 29 January 2021
Orbit: 383 x 391 km, 45.0° (Epoch: 27 February)

Event Time Altitude Azimuth Distance (km) Brightness Sun altitude
Rises 19:23:38 0° 270° (W) 2,274 6.0 -22.7°
Reaches altitude 10° 19:26:20 10° 245° (WSW) 1,417 4.3 -23.2°
Maximum altitude 19:28:13 15° 209° (SSW) 1,165 3.3 -23.5°
Enters shadow 19:28:29 15° 203° (SSW) 1,170 3.2 -23.5°
